[[{"header":{"parameterUnit":"m.s-1","parameterCategory":1,"la1":30.2991,"la2":30.254,"lo1":-89.0895,"lo2":-89.0444,"dy":0.0017,"dx":0.0017,"nx":28,"ny":28,"refTime":"2023-11-14T09:00:00:Z","depth":0,"parameterNumber":2,"parameterNumberName":"U-component_of_WINDS"},"data":[0,0,0,0,0,0,0,0,0,0,0,0,0,0,0,0,0,0,0,0,0,0,0,0,0,0,0,0,0,0,0,0,0,0,0,0,0,0,0,0,0,0,0,0,0,0,0,0,0,0,0,0,0,0,0,0,0,0,-6.0114,-6.0115,0,-6.0184,-6.0185,-6.0186,-6.0038,-6.0033,-6.0028,-6.0024,-6.0101,-6.0107,-6.0114,0,0,0,0,0,0,0,0,0,0,0,0,0,-5.9855,-5.9861,-6.0114,-6.0115,-6.0116,-6.0184,-6.0185,-6.0186,-6.0039,-6.0033,-6.0027,-6.0022,-6.0099,-6.0107,-6.0115,0,0,0,0,0,0,0,0,0,0,0,0,0,-5.9951,-5.9863,-6.0114,-6.005,-6.0045,-6.0184,-6.0185,-6.0187,-6.004,-6.0033,-6.0026,-6.0019,-6.0096,-6.0106,-6.0116,-6.0321,0,0,-6.0146,-6.015,0,0,0,0,0,0,0,0,-5.9946,-5.9961,-6.0059,-6.0055,-6.005,-6.0095,-6.0122,-6.0232,-6.0042,-6.0042,-6.0024,-6.0015,-6.0105,-6.0114,-6.0143,-6.0325,-6.0328,-6.0147,-6.0152,-6.0157,-6.0159,0,0,0,0,0,0,0,-5.994,-5.9957,-6.0142,-6.006,-6.0055,-6.002,-6.0025,-6.0142,-6.0114,-6.0042,-6.0031,-6.0041,-6.0101,-6.0134,-6.0144,-6.0329,-6.0146,-6.0155,-6.0161,-6.0165,-6.0683,-6.069,0,0,0,0,0,0,-5.994,-5.9953,-6.014,-6.0144,-5.9979,-6.003,-6.0036,-6.0088,-6.0112,-6.0108,-6.0047,-6.0034,-6.0121,-6.0133,-6.0146,-6.0388,-6.0157,-6.0166,-6.0171,-6.0675,-6.0685,-6.0693,0,0,0,0,0,0,-5.9935,-5.9958,-6.0137,-6.0045,-6.0065,-6.0042,-6.0101,-6.0093,-6.0125,-6.0116,-6.0111,-6.0086,-6.0116,-6.0132,-6.0278,-6.0389,-6.017,-6.0179,-6.0666,-6.0678,-6.0689,-6.0875,0,0,0,0,0,0,-5.9929,-5.9958,-6.0034,-6.0048,-6.0071,-6.0267,-6.0108,-6.01,-6.0142,-6.0125,-6.0151,-6.0148,-6.0111,-6.0264,-6.0288,-6.0399,-6.0187,-6.0656,-6.0671,-6.0685,-6.0859,-6.0892,-6.092,0,0,0,0,0,-5.992,-6.0085,-6.0039,-6.0063,-6.0166,-6.0274,-6.0287,-6.024,-6.0152,-6.0229,-6.0223,-6.0147,-6.0373,-6.0281,-6.0306,-6.0421,-6.0649,-6.0667,-6.0684,-6.0845,-6.0885,-6.0919,0,0,0,0,0,0,-6.0087,-6.0086,-6.0035,-6.0209,-6.0243,-6.0249,-6.0345,-6.0284,-6.0344,-6.0326,-6.0266,-6.0274,-6.0432,-6.0441,-6.0338,-6.0621,-6.0496,-6.052,-6.061,-6.0648,-6.0678,-6.0673,-6.0195,0,0,0,0,0,-6.0143,-6.0229,-6.0224,-6.0379,-6.0398,-6.0369,-6.0414,-6.0375,-6.0408,-6.0422,-6.0426,-6.0463,-6.0541,-6.0595,-6.0667,-6.0859,-6.0863,-6.0951,-6.0981,-6.1006,-6.1028,-6.1131,-6.117,-6.0751,-6.0751,-6.0751,0,0,-6.0262,-6.0272,-6.033,-6.0412,-6.0434,-6.0526,-6.0382,-6.0485,-6.0553,-6.0438,-6.0576,-6.0581,-6.0617,-6.0787,-6.0863,-6.08,-6.1144,-6.1029,-6.1049,-6.1057,-6.1153,-6.1193,-6.1228,-6.0763,-6.0761,-6.0759,0,0,-6.0525,-6.0541,-6.0671,-6.0695,-6.0729,-6.0709,-6.074,-6.0756,-6.0754,-6.0891,-6.0806,-6.0887,-6.1024,-6.1054,-6.1087,-6.1361,-6.1294,-6.1386,-6.1546,-6.1647,-6.168,-6.1709,-6.1808,-6.1844,-6.1408,-6.1408,-6.1408,0,-6.0669,-6.0803,-6.0747,-6.0856,-6.0895,-6.0793,-6.0925,-6.0951,-6.1008,-6.1038,-6.0966,-6.1136,-6.1153,-6.1329,-6.1396,-6.1426,-6.1461,-6.1384,-6.1679,-6.1708,-6.1734,-6.1828,-6.1865,-6.1419,-6.1418,-6.1417,-6.1416,0,-6.0978,-6.1072,-6.1174,-6.1229,-6.1279,-6.14,-6.1363,-6.1421,-6.1378,-6.1366,-6.1507,-6.1524,-6.1598,-6.1636,-6.1596,-6.1807,-6.1767,-6.1689,-6.1562,-6.1786,-6.1873,-6.1908,-6.1435,-6.1431,-6.1428,-6.1425,0,0,-6.135,-6.1372,-6.141,-6.1434,-6.1463,-6.1535,-6.1652,-6.1722,-6.1773,-6.1816,-6.1913,-6.2031,-6.1958,-6.1996,-6.1957,-6.2046,-6.2263,-6.1956,-6.1956,-6.2013,-6.2498,-6.2558,-6.26,-6.2218,-6.2224,-6.223,-6.2495,0,-6.1611,-6.1809,-6.1762,-6.1958,-6.2045,-6.1949,-6.205,-6.208,-6.2072,-6.2146,-6.2136,-6.2221,-6.2118,-6.2141,-6.2224,-6.2219,-6.236,-6.2199,-6.2309,-6.2313,-6.2304,-6.2646,-6.2709,-6.2959,-6.2529,-6.2535,-6.2539,0,-6.1942,-6.1996,-6.2201,-6.2216,-6.225,-6.2342,-6.2403,-6.2474,-6.2506,-6.2494,-6.2536,-6.248,-6.2596,-6.2468,-6.2628,-6.2519,-6.2561,-6.2566,-6.2574,-6.2584,-6.2441,-6.2665,-6.3038,-6.3076,-6.2592,-6.2588,-6.2584,0,-6.2194,-6.2317,-6.2455,-6.2479,-6.25,-6.2567,-6.2579,-6.2603,-6.2649,-6.2703,-6.2732,-6.2799,-6.2837,-6.2891,-6.2855,-6.2764,-6.3022,-6.289,-6.3016,-6.3018,-6.3076,-6.3073,-6.3462,-6.3102,-6.3102,-6.3101,-6.31,0,-6.2491,-6.2621,-6.2569,-6.2654,-6.2797,-6.2742,-6.2885,-6.2886,-6.2909,-6.2994,-6.2915,-6.2997,-6.2944,-6.3022,-6.2995,-6.3132,-6.3149,-6.3144,-6.3135,-6.3152,-6.3153,-6.3179,-6.3161,-6.3111,-6.3108,-6.3107,-6.3105,0,-6.2797,-6.2767,-6.2912,-6.2919,-6.2924,-6.3029,-6.3036,-6.3116,-6.3101,-6.321,-6.3232,-6.321,-6.3297,-6.3266,-6.3361,-6.3342,-6.3518,-6.3486,-6.3507,-6.3499,-6.3628,-6.3617,-6.4048,-6.4102,-6.3707,-6.3711,-6.3714,0,-6.2989,-6.3086,-6.3104,-6.3154,-6.3171,-6.3254,-6.3299,-6.3249,-6.33,-6.3344,-6.3419,-6.3499,-6.3561,-6.3706,-6.3699,-6.3771,-6.3741,-6.3887,-6.3752,-6.3765,-6.3745,-6.374,-6.3749,-6.3915,-6.392,-6.3923,-6.3926,0,-6.3334,-6.3314,-6.3382,-6.3446,-6.3502,-6.355,-6.3591,-6.3637,-6.3589,-6.3651,-6.3738,-6.3786,-6.3881,-6.3962,-6.4027,-6.404,-6.3977,-6.3969,-6.4002,-6.402,-6.4028,-6.4027,-6.3582,-6.396,-6.3956,-6.3954,-6.3952,-6.3951,-6.3589,-6.3671,-6.3696,-6.3774,-6.38,-6.384,-6.3915,-6.3909,-6.3981,-6.4053,-6.402,-6.4122,-6.4152,-6.4231,-6.4254,-6.4334,-6.4277,-6.4326,-6.4338,-6.4351,-6.4368,-6.4015,-6.4345,-6.4344,-6.4343,-6.4343,-6.4342,0,-6.393,-6.3941,-6.4014,-6.4073,-6.4135,-6.4067,-6.4109,-6.4166,-6.4256,-6.4289,-6.435,-6.4452,-6.453,-6.4529,-6.4602,-6.4666,-6.4639,-6.4688,-6.4683,-6.4687,-6.4414,-6.4378,-6.4708,-6.4708,-6.4708,-6.4708,-6.4708,-6.4708,-6.4115,-6.425,-6.4234,-6.4381,-6.4391,-6.4489,-6.4519,-6.4556,-6.4581,-6.4697,-6.4761,-6.4759,-6.4779,-6.4853,-6.4922,-6.492,-6.4951,-6.5011,-6.4998,-6.4743,-6.4706,-6.4672,-6.4638,-6.5018,-6.5018,-6.5265,-6.5267,-6.5269]},{"header":{"parameterUnit":"m.s-1","parameterCategory":1,"la1":30.2991,"la2":30.254,"lo1":-89.0895,"lo2":-89.0444,"dy":0.0017,"dx":0.0017,"nx":28,"ny":28,"refTime":"2023-11-14T09:00:00:Z","depth":0,"parameterNumber":3,"parameterNumberName":"V-component_of_WINDS"},"data":[0,0,0,0,0,0,0,0,0,0,0,0,0,0,0,0,0,0,0,0,0,0,0,0,0,0,0,0,0,0,0,0,0,0,0,0,0,0,0,0,0,0,0,0,0,0,0,0,0,0,0,0,0,0,0,0,0,0,-4.2922,-4.2923,0,-4.2938,-4.2938,-4.2938,-4.2863,-4.2861,-4.2859,-4.2857,-4.2872,-4.2875,-4.2877,0,0,0,0,0,0,0,0,0,0,0,0,0,-4.2827,-4.283,-4.2922,-4.2923,-4.2923,-4.2937,-4.2938,-4.2938,-4.2864,-4.2861,-4.2858,-4.2856,-4.2872,-4.2874,-4.2877,0,0,0,0,0,0,0,0,0,0,0,0,0,-4.2858,-4.283,-4.2922,-4.2887,-4.2884,-4.2937,-4.2938,-4.2938,-4.2864,-4.2861,-4.2858,-4.2855,-4.2871,-4.2874,-4.2878,-4.2965,0,0,-4.2889,-4.289,0,0,0,0,0,0,0,0,-4.2857,-4.2862,-4.2892,-4.289,-4.2887,-4.2895,-4.291,-4.2947,-4.2865,-4.2872,-4.2857,-4.2853,-4.2883,-4.2885,-4.2895,-4.2966,-4.2966,-4.2889,-4.2891,-4.2893,-4.2894,0,0,0,0,0,0,0,-4.2855,-4.2861,-4.2928,-4.2893,-4.2889,-4.287,-4.2871,-4.2917,-4.2895,-4.2871,-4.2866,-4.2868,-4.288,-4.2892,-4.2895,-4.2967,-4.2889,-4.2892,-4.2895,-4.2896,-4.3107,-4.3111,0,0,0,0,0,0,-4.2857,-4.286,-4.2928,-4.2929,-4.2863,-4.2875,-4.2876,-4.2896,-4.2894,-4.2891,-4.2871,-4.2865,-4.2887,-4.2891,-4.2895,-4.2996,-4.2893,-4.2896,-4.2898,-4.3104,-4.3108,-4.3112,0,0,0,0,0,0,-4.2856,-4.2864,-4.2927,-4.2893,-4.2899,-4.288,-4.2903,-4.2898,-4.2909,-4.2895,-4.289,-4.2887,-4.2885,-4.289,-4.2948,-4.2995,-4.2898,-4.2901,-4.31,-4.3105,-4.311,-4.3199,0,0,0,0,0,0,-4.2853,-4.2864,-4.2898,-4.2894,-4.2901,-4.2981,-4.2906,-4.29,-4.2915,-4.2907,-4.2908,-4.2905,-4.2882,-4.2943,-4.2951,-4.2999,-4.2904,-4.3096,-4.3102,-4.3108,-4.3192,-4.3207,-4.3219,0,0,0,0,0,-4.285,-4.2922,-4.29,-4.2908,-4.2943,-4.2983,-4.2988,-4.296,-4.292,-4.2953,-4.2943,-4.2905,-4.2989,-4.2949,-4.2958,-4.3007,-4.3092,-4.31,-4.3108,-4.3186,-4.3204,-4.3219,0,0,0,0,0,0,-4.2933,-4.2921,-4.2896,-4.297,-4.2978,-4.2971,-4.3012,-4.298,-4.3001,-4.2992,-4.2957,-4.2958,-4.3021,-4.302,-4.2976,-4.3091,-4.3033,-4.3043,-4.3089,-4.3106,-4.312,-4.3119,-4.2907,0,0,0,0,0,-4.2959,-4.2993,-4.2982,-4.3048,-4.3053,-4.3032,-4.3048,-4.3026,-4.3034,-4.3037,-4.3031,-4.304,-4.3068,-4.3087,-4.3112,-4.3191,-4.3189,-4.3229,-4.3243,-4.3254,-4.3263,-4.3303,-4.332,-4.3137,-4.3137,-4.3137,0,0,-4.3015,-4.3013,-4.3037,-4.3064,-4.3068,-4.3103,-4.3035,-4.3076,-4.3102,-4.3043,-4.3097,-4.3093,-4.31,-4.3168,-4.3198,-4.3169,-4.3313,-4.3264,-4.3273,-4.3276,-4.3313,-4.333,-4.3346,-4.3143,-4.3142,-4.3141,0,0,-4.3135,-4.3137,-4.3191,-4.3196,-4.3202,-4.3188,-4.3201,-4.3198,-4.3193,-4.3246,-4.3202,-4.3232,-4.3281,-4.3287,-4.3297,-4.3417,-4.3382,-4.3426,-4.3498,-4.3537,-4.3552,-4.3564,-4.3606,-4.3621,-4.3435,-4.3435,-4.3435,0,-4.3203,-4.3255,-4.3223,-4.3266,-4.3279,-4.3227,-4.3281,-4.3287,-4.3301,-4.3311,-4.3278,-4.3338,-4.3339,-4.3407,-4.3436,-4.3446,-4.3459,-4.3426,-4.3552,-4.3564,-4.3576,-4.3615,-4.3631,-4.344,-4.344,-4.3439,-4.3438,0,-4.3338,-4.3374,-4.3417,-4.3432,-4.3449,-4.3498,-4.3473,-4.3494,-4.347,-4.3458,-4.3512,-4.3511,-4.3535,-4.3549,-4.3526,-4.3614,-4.3595,-4.3558,-4.35,-4.3599,-4.3635,-4.365,-4.3448,-4.3446,-4.3444,-4.3443,0,0,-4.3512,-4.3506,-4.3523,-4.3527,-4.353,-4.3557,-4.3602,-4.3624,-4.3643,-4.3654,-4.369,-4.3732,-4.3697,-4.3708,-4.3685,-4.372,-4.3813,-4.3678,-4.3677,-4.3702,-4.3908,-4.3936,-4.3954,-4.379,-4.3793,-4.3795,-4.3907,0,-4.3628,-4.3705,-4.3677,-4.3756,-4.3788,-4.3738,-4.3777,-4.3782,-4.3772,-4.3797,-4.3786,-4.3816,-4.3767,-4.3773,-4.3806,-4.3795,-4.3854,-4.3787,-4.3823,-4.3825,-4.3823,-4.3973,-4.4003,-4.4109,-4.3921,-4.3924,-4.3925,0,-4.3774,-4.379,-4.3872,-4.3866,-4.3879,-4.3915,-4.3932,-4.3957,-4.3961,-4.3951,-4.3963,-4.3932,-4.3975,-4.3917,-4.3975,-4.393,-4.3943,-4.394,-4.3943,-4.3946,-4.3881,-4.3979,-4.4142,-4.4158,-4.3947,-4.3946,-4.3944,0,-4.3891,-4.3933,-4.3987,-4.3993,-4.3988,-4.4014,-4.4014,-4.4014,-4.4029,-4.4044,-4.4052,-4.4072,-4.4083,-4.4099,-4.4074,-4.4034,-4.4136,-4.4076,-4.4128,-4.4129,-4.4152,-4.4151,-4.432,-4.4161,-4.4161,-4.4161,-4.416,0,-4.4024,-4.4076,-4.4039,-4.4073,-4.4128,-4.4095,-4.4151,-4.4145,-4.4146,-4.4176,-4.4134,-4.4164,-4.4129,-4.4155,-4.4136,-4.4186,-4.4192,-4.4184,-4.4179,-4.4188,-4.4189,-4.4196,-4.4188,-4.4165,-4.4164,-4.4163,-4.4163,0,-4.4164,-4.4142,-4.4197,-4.4188,-4.4186,-4.4228,-4.4219,-4.4249,-4.4235,-4.4274,-4.4282,-4.426,-4.4288,-4.4264,-4.4292,-4.4279,-4.4346,-4.433,-4.4345,-4.434,-4.4394,-4.4389,-4.4573,-4.4595,-4.4423,-4.4425,-4.4426,0,-4.425,-4.4289,-4.4282,-4.4299,-4.4301,-4.433,-4.4343,-4.4311,-4.4328,-4.4334,-4.4363,-4.4388,-4.4405,-4.4453,-4.4439,-4.446,-4.4444,-4.4507,-4.4447,-4.4454,-4.4444,-4.4442,-4.4445,-4.4519,-4.4521,-4.4523,-4.4524,0,-4.4405,-4.4391,-4.4413,-4.4431,-4.4448,-4.4461,-4.447,-4.4486,-4.4453,-4.4473,-4.4501,-4.4515,-4.4542,-4.4567,-4.4583,-4.4581,-4.4547,-4.4543,-4.4556,-4.4566,-4.4573,-4.4569,-4.4378,-4.4539,-4.4537,-4.4536,-4.4536,-4.4535,-4.452,-4.4551,-4.4551,-4.4576,-4.4579,-4.4588,-4.4615,-4.4604,-4.4626,-4.4646,-4.4625,-4.4659,-4.466,-4.4678,-4.4681,-4.4706,-4.468,-4.4699,-4.4704,-4.4709,-4.4717,-4.4569,-4.4709,-4.4709,-4.4708,-4.4708,-4.4707,0,-4.4672,-4.4668,-4.4692,-4.4705,-4.4724,-4.469,-4.4697,-4.4716,-4.4746,-4.475,-4.4768,-4.4799,-4.4822,-4.481,-4.483,-4.4852,-4.4837,-4.4859,-4.4857,-4.4857,-4.4739,-4.4726,-4.4871,-4.4871,-4.4871,-4.4871,-4.487,-4.487,-4.4753,-4.4803,-4.4789,-4.484,-4.4836,-4.4868,-4.4876,-4.4883,-4.4886,-4.4923,-4.4941,-4.4933,-4.493,-4.4949,-4.4968,-4.4964,-4.4973,-4.5,-4.4991,-4.4881,-4.4865,-4.485,-4.4837,-4.5003,-4.5003,-4.5105,-4.5106,-4.5107]}]]